TimeCDT,TemperatureF,Dew PointF,Humidity,Sea Level PressureIn,VisibilityMPH,Wind Direction,Wind SpeedMPH,Gust SpeedMPH,PrecipitationIn,Events,Conditions,WindDirDegrees,DateUTC
12:15 AM,31.1,29.8,95,30.10,5.0,SW,8.1,-,N/A,,Mostly Cloudy,220,2013-03-15 05:15:00
12:35 AM,30.9,29.8,96,30.09,5.0,SW,4.6,-,N/A,,Scattered Clouds,220,2013-03-15 05:35:00
12:55 AM,30.2,29.3,96,30.09,5.0,SW,4.6,-,N/A,,Clear,220,2013-03-15 05:55:00
1:15 AM,30.2,29.3,96,30.08,4.0,SSW,3.5,-,N/A,,Scattered Clouds,200,2013-03-15 06:15:00
1:35 AM,30.0,29.3,97,30.07,5.0,Calm,Calm,-,N/A,,Mostly Cloudy,0,2013-03-15 06:35:00
1:55 AM,30.0,29.3,97,30.07,5.0,SSW,4.6,-,N/A,,Mostly Cloudy,210,2013-03-15 06:55:00
2:15 AM,29.8,29.3,98,30.07,5.0,SSW,3.5,-,N/A,,Mostly Cloudy,200,2013-03-15 07:15:00
2:35 AM,29.1,28.4,97,30.05,5.0,SSW,4.6,-,N/A,,Scattered Clouds,210,2013-03-15 07:35:00
2:55 AM,29.5,29.1,99,30.04,4.0,SSW,5.8,-,N/A,,Clear,210,2013-03-15 07:55:00
3:15 AM,29.7,29.1,98,30.03,4.0,SSW,4.6,-,N/A,,Clear,210,2013-03-15 08:15:00
3:35 AM,29.7,29.1,98,30.02,4.0,SW,5.8,-,N/A,,Clear,220,2013-03-15 08:35:00
3:55 AM,29.7,29.1,98,30.01,4.0,SW,4.6,-,N/A,,Clear,220,2013-03-15 08:55:00
4:15 AM,29.3,28.9,99,30.01,4.0,SW,5.8,-,N/A,,Clear,220,2013-03-15 09:15:00
4:35 AM,29.5,29.1,99,30.00,5.0,SW,5.8,-,N/A,,Scattered Clouds,220,2013-03-15 09:35:00
4:55 AM,29.1,28.4,97,29.99,5.0,SW,5.8,-,N/A,,Mostly Cloudy,220,2013-03-15 09:55:00
5:15 AM,28.9,28.2,97,29.99,4.0,SSW,4.6,-,N/A,,Mostly Cloudy,210,2013-03-15 10:15:00
5:35 AM,28.9,28.2,97,29.98,4.0,SW,5.8,-,N/A,,Mostly Cloudy,220,2013-03-15 10:35:00
5:55 AM,28.2,27.5,97,29.98,4.0,SW,5.8,-,N/A,,Mostly Cloudy,220,2013-03-15 10:55:00
6:15 AM,27.7,27.1,98,29.98,4.0,SW,4.6,-,N/A,,Mostly Cloudy,230,2013-03-15 11:15:00
6:35 AM,28.0,27.5,98,29.98,4.0,SW,4.6,-,N/A,,Mostly Cloudy,230,2013-03-15 11:35:00
6:55 AM,27.5,27.3,99,29.98,4.0,SW,4.6,-,N/A,,Scattered Clouds,230,2013-03-15 11:55:00
7:15 AM,27.9,27.5,99,29.96,4.0,SSW,5.8,-,N/A,,Clear,210,2013-03-15 12:15:00
7:35 AM,28.4,28.0,99,29.97,3.0,SW,4.6,-,N/A,,Clear,230,2013-03-15 12:35:00
7:55 AM,28.8,28.4,99,29.96,4.0,SW,4.6,-,N/A,,Scattered Clouds,220,2013-03-15 12:55:00
8:15 AM,30.0,29.7,99,29.96,4.0,SW,5.8,-,N/A,,Clear,220,2013-03-15 13:15:00
8:35 AM,31.1,30.4,97,29.95,4.0,WSW,6.9,-,N/A,,Clear,240,2013-03-15 13:35:00
8:55 AM,32.0,31.1,96,29.95,5.0,WSW,8.1,-,N/A,,Clear,250,2013-03-15 13:55:00
9:15 AM,32.7,30.9,93,29.95,5.0,WSW,8.1,-,N/A,,Clear,240,2013-03-15 14:15:00
9:35 AM,33.4,31.1,91,29.94,5.0,WSW,8.1,-,N/A,,Scattered Clouds,240,2013-03-15 14:35:00
9:55 AM,34.0,31.1,89,29.95,5.0,WSW,6.9,-,N/A,,Scattered Clouds,250,2013-03-15 14:55:00
10:55 AM,36.9,32.0,83,29.93,7.0,WSW,3.5,-,N/A,,Clear,250,2013-03-15 15:55:00
11:15 AM,37.6,31.1,77,29.92,7.0,SW,3.5,-,N/A,,Clear,220,2013-03-15 16:15:00
11:35 AM,39.0,31.8,75,29.92,7.0,Calm,Calm,-,N/A,,Clear,0,2013-03-15 16:35:00
11:55 AM,40.5,32.0,72,29.92,7.0,Calm,Calm,-,N/A,,Clear,0,2013-03-15 16:55:00
12:15 PM,41.5,32.2,69,29.92,10.0,West,4.6,-,N/A,,Clear,260,2013-03-15 17:15:00
12:35 PM,43.5,32.9,66,29.92,10.0,WSW,4.6,-,N/A,,Clear,250,2013-03-15 17:35:00
12:55 PM,44.1,32.7,64,29.91,10.0,WSW,3.5,-,N/A,,Clear,240,2013-03-15 17:55:00
1:15 PM,44.2,32.5,63,29.91,10.0,West,3.5,-,N/A,,Scattered Clouds,270,2013-03-15 18:15:00
1:35 PM,44.8,33.4,64,29.90,10.0,WSW,6.9,-,N/A,,Mostly Cloudy,250,2013-03-15 18:35:00
1:55 PM,44.6,32.7,63,29.89,10.0,WSW,5.8,-,N/A,,Mostly Cloudy,240,2013-03-15 18:55:00
2:15 PM,44.1,34.0,68,29.88,7.0,SW,5.8,-,N/A,,Light Drizzle,230,2013-03-15 19:15:00
2:35 PM,43.9,34.2,69,29.87,7.0,WSW,3.5,-,N/A,,Light Drizzle,250,2013-03-15 19:35:00
2:55 PM,44.1,35.6,72,29.87,7.0,SW,3.5,-,N/A,Rain,Light Rain,230,2013-03-15 19:55:00
3:15 PM,43.7,36.5,76,29.87,7.0,SW,5.8,-,N/A,Rain,Light Rain,220,2013-03-15 20:15:00
3:35 PM,43.7,37.4,78,29.86,5.0,SW,5.8,-,N/A,,Drizzle,230,2013-03-15 20:35:00
3:55 PM,42.3,36.9,81,29.86,5.0,NNW,4.6,-,0.01,Rain,Light Rain,340,2013-03-15 20:55:00
4:15 PM,41.4,37.4,86,29.86,4.0,North,4.6,-,N/A,Rain,Rain,10,2013-03-15 21:15:00
4:35 PM,39.9,36.5,88,29.86,4.0,North,4.6,-,0.01,Rain,Light Rain,10,2013-03-15 21:35:00
4:55 PM,39.4,36.3,89,29.86,4.0,NNW,3.5,-,0.02,Rain,Heavy Rain,340,2013-03-15 21:55:00
5:15 PM,39.2,36.5,90,29.86,3.0,North,3.5,-,0.02,Rain,Rain,360,2013-03-15 22:15:00
5:35 PM,38.8,37.0,93,29.86,4.0,Calm,Calm,-,0.03,Rain,Light Rain,0,2013-03-15 22:35:00
5:55 PM,38.8,37.2,94,29.84,4.0,Calm,Calm,-,0.04,Rain,Light Rain,0,2013-03-15 22:55:00
6:15 PM,38.8,37.6,95,29.84,2.5,Calm,Calm,-,0.01,Rain,Light Rain,0,2013-03-15 23:15:00
6:35 PM,38.3,37.4,97,29.84,2.0,Calm,Calm,-,0.04,Rain,Rain,0,2013-03-15 23:35:00
6:55 PM,38.1,37.4,97,29.82,2.0,NE,5.8,-,0.06,Rain,Rain,50,2013-03-15 23:55:00
7:15 PM,37.4,36.7,97,29.82,2.0,Calm,Calm,-,N/A,Rain,Light Rain,0,2013-03-16 00:15:00
7:35 PM,37.0,36.5,98,29.82,2.0,ENE,3.5,-,0.01,Rain,Light Rain,70,2013-03-16 00:35:00
7:55 PM,36.9,36.5,99,29.80,2.0,ESE,4.6,-,0.02,Rain,Light Rain,110,2013-03-16 00:55:00
8:15 PM,37.4,36.9,98,29.79,1.5,East,6.9,-,N/A,,Light Drizzle,100,2013-03-16 01:15:00
8:35 PM,37.4,36.9,98,29.79,1.5,East,8.1,-,N/A,,Light Drizzle,80,2013-03-16 01:35:00
8:55 PM,37.4,37.0,99,29.80,1.5,East,3.5,-,0.01,,Overcast,80,2013-03-16 01:55:00
9:15 PM,37.4,37.0,99,29.82,2.0,Calm,Calm,-,N/A,,Overcast,0,2013-03-16 02:15:00
9:55 PM,37.4,37.0,99,29.82,1.8,North,4.6,-,N/A,,Light Drizzle,360,2013-03-16 02:55:00
10:15 PM,36.9,36.7,99,29.81,1.5,NNE,5.8,-,N/A,,Overcast,20,2013-03-16 03:15:00
10:35 PM,36.5,36.5,100,29.80,2.0,NE,8.1,-,N/A,,Overcast,40,2013-03-16 03:35:00
10:55 PM,36.1,36.0,99,29.79,1.5,NNE,8.1,-,N/A,,Overcast,30,2013-03-16 03:55:00
11:15 PM,36.1,36.0,99,29.77,1.5,NE,6.9,-,N/A,,Overcast,50,2013-03-16 04:15:00
11:35 PM,36.1,36.0,99,29.74,1.8,ENE,6.9,-,N/A,,Overcast,60,2013-03-16 04:35:00
11:55 PM,36.0,35.8,99,29.73,1.5,NE,9.2,-,N/A,,Overcast,50,2013-03-16 04:55:00